Flag for France Weather past 2 weeks in Biarritz, France

Now
55 °F

Mostly cloudy.


Feels Like: 52 °F
Forecast: 46 / 52 °F
Wind: 14 mph from West

Location: Biarritz Airport

Current Time: Mar 31, 2015 at 2:14:29 PM

Latest Report: Mar 31, 2015 at 1:30 PM


Visibility: N/A

Pressure: 30.48 "Hg

Humidity: 88%

Dew point: 52 °F

Location of BiarritzLocation

Historic Weather in Biarritz — Graph

°F

Biarritz temperature yesterday

Maximum temperature yesterday: 59 °F (at 2:30 AM)
Minimum temperature yesterday: 54 °F (at 11:00 AM)
Average temperature yesterday: 55 °F

Past Weeks' High & Low Weather Summary

 TemperatureHumidityPressure
High68 °F (Mar 17, 3:00 PM)100% (Mar 19, 4:00 AM)30.48 "Hg (Mar 19, 4:00 AM)
Low37 °F (Mar 25, 6:00 AM)26% (Mar 17, 4:30 PM)29.77 "Hg (Mar 24, 2:30 AM)
Average50 °F83%30.11 "Hg
* Reported Mar 16 12:00 Noon — Mar 31 1:00 PM, Biarritz, Weather by CustomWeather, © 2015

Note: Actual official high and low records may vary slightly from our data, if they occured in-between our weather recording intervals... More about our weather records

Advertising

Biarritz weather history for previous 24 hours

 ConditionsComfort  
Time TempWeatherWind HumidityBarometerVisibility
1:00 PM
Tue, Mar 31
55 °FMostly cloudy.17 mph88%30.48 "HgN/A
12:30 PM55 °FMore clouds than sun.18 mph88%30.48 "HgN/A
12:00 PM54 °FMostly cloudy.17 mph94%30.48 "HgN/A
11:30 AM54 °FMostly cloudy.16 mph94%30.48 "HgN/A
11:00 AM54 °FLow clouds.17 mph94%30.48 "HgN/A
10:30 AM54 °FDrizzle. Mostly cloudy.18 mph88%30.48 "Hg5 mi
10:00 AM54 °FMore clouds than sun.14 mph88%30.45 "HgN/A
9:30 AM54 °FOvercast.13 mph88%30.45 "HgN/A
9:00 AM54 °FPartly sunny.13 mph88%30.45 "HgN/A
8:30 AM54 °FMostly cloudy.14 mph88%30.45 "HgN/A
8:00 AM54 °FDrizzle. Mostly cloudy.14 mph88%30.42 "HgN/A
7:30 AM54 °FMostly cloudy.15 mph88%30.42 "HgN/A
7:00 AM54 °FMostly cloudy.17 mph88%30.42 "Hg6 mi
6:30 AM54 °FLow clouds.16 mph94%30.39 "Hg5 mi
6:00 AM54 °FLow clouds.17 mph94%30.39 "HgN/A
5:30 AM54 °FMostly cloudy.15 mph94%30.39 "HgN/A
4:30 AM54 °FMostly cloudy.13 mph94%30.36 "HgN/A
4:00 AM54 °FMostly cloudy.9 mph94%30.36 "HgN/A
3:30 AM54 °FPassing clouds.7 mph94%30.36 "HgN/A
3:00 AM54 °FPassing clouds.8 mph94%30.39 "HgN/A
2:30 AM54 °FLow clouds.9 mph94%30.39 "HgN/A
2:00 AM54 °FOvercast.8 mph94%30.39 "HgN/A
1:30 AM54 °FMostly cloudy.10 mph94%30.42 "HgN/A
1:00 AM54 °FMostly cloudy.14 mph94%30.42 "HgN/A
12:30 AM54 °FLow clouds.10 mph94%30.42 "HgN/A
12:00 AM54 °FLow clouds.15 mph94%30.42 "HgN/A
11:30 PM
Mon, Mar 30
54 °FLow clouds.12 mph94%30.42 "Hg6 mi
11:00 PM54 °FLow clouds.12 mph94%30.42 "HgN/A
10:30 PM54 °FLow clouds.12 mph94%30.42 "Hg5 mi
10:00 PM54 °FFog.10 mph94%30.42 "Hg1 mi
9:30 PM54 °FDrizzle. Fog.10 mph94%30.39 "Hg3 mi
9:00 PM54 °FDrizzle. Fog.9 mph94%30.39 "Hg1 mi
8:30 PM54 °FDrizzle. Fog.10 mph94%30.39 "Hg2 mi
8:00 PM54 °FDrizzle. Fog.8 mph94%30.39 "Hg2 mi
7:30 PM54 °FDrizzle. Fog.12 mph94%30.39 "Hg2 mi
7:00 PM54 °FDrizzle. Fog.8 mph94%30.39 "Hg3 mi
6:30 PM54 °FDrizzle. Fog.12 mph94%30.39 "Hg2 mi
6:00 PM54 °FDrizzle. Fog.12 mph94%30.39 "Hg2 mi
5:30 PM54 °FDrizzle. Fog.13 mph94%30.39 "Hg1 mi
5:00 PM54 °FLight rain. Fog.14 mph94%30.39 "Hg1 mi
4:30 PM54 °FRain. Fog.10 mph94%30.39 "Hg1 mi
4:00 PM54 °FLight rain. Fog.12 mph94%30.39 "Hg1 mi
3:30 PM54 °FRain. Fog.12 mph94%30.39 "Hg1 mi
3:00 PM54 °FRain. Fog.12 mph94%30.39 "Hg1 mi
2:30 PM54 °FLight rain. Fog.14 mph94%30.39 "Hg1 mi
2:00 PM54 °FLow clouds.10 mph94%30.39 "Hg5 mi
Weather by CustomWeather, © 2015

See weather overviewHow to use our weather pages